User: anonymous   Login
Location: Caltech
(34.1382°N, 118.1253°W)
Time: 12:13:20
(UTC-07:00)
Language:

OPAL - Orbit

View from above orbital plane
View from above orbital plane
View from above satellite
View from above satellite

Ground track
Ground track

The orbit data is extracted from the following two-line orbital elements,

1 26063U 00004C   16150.40773131  .00000015  00000-0  24979-4 0  9991
2 26063 100.1892  77.4333 0035990 311.5233  48.2861 14.36618140856272
Epoch (UTC): 29 May 2016 09:47:07
Eccentricity: 0.0035990
inclination: 100.1892°
perigee height: 744 km
apogee height: 795 km
right ascension of ascending node: 77.4333°
argument of perigee: 311.5233°
revolutions per day: 14.36618140
mean anomaly at epoch: 48.2861°
orbit number at epoch: 85627

The dashed part of the orbit path shows where the satellite is in the earth's shadow,  

DLR